This is the latest recevied weather packets stored in our database for station/object N5SOR-1. If no packets are shown the sender has not sent any weather packets the latest 10 day(s).
| Time | Temp. | Humidity | Pressure | Rain* | Wind** | Luminosity | Snow |
|---|---|---|---|---|---|---|---|
| 1778105682 | 25° C | 28% | 1010.4 hPa | 0 mm | - | 374 W/m² | - |
| 1778105021 | 25.56° C | 28% | 1010.5 hPa | 0 mm | - | 339 W/m² | - |
| 1778104360 | 26.11° C | 27% | 1010.4 hPa | 0 mm | - | 443 W/m² | - |
| 1778103700 | 26.11° C | 28% | 1010.4 hPa | 0 mm | - | 624 W/m² | - |
| 1778103039 | 25.56° C | 28% | 1010.4 hPa | 0 mm | - | 700 W/m² | - |
| 1778102378 | 26.11° C | 27% | 1010.6 hPa | 0 mm | - | 613 W/m² | - |
| 1778101718 | 25.56° C | 28% | 1010.9 hPa | 0 mm | - | 666 W/m² | - |
| 1778101057 | 25.56° C | 28% | 1011 hPa | 0 mm | - | 946 W/m² | - |
| 1778100396 | 26.11° C | 27% | 1011 hPa | 0 mm | - | 905 W/m² | - |
| 1778099736 | 26.67° C | 28% | 1011.1 hPa | 0 mm | - | 956 W/m² | - |
| 1778099075 | 26.11° C | 26% | 1011.3 hPa | 0 mm | - | 884 W/m² | - |
| 1778098415 | 25° C | 27% | 1011.4 hPa | 0 mm | - | 1013 W/m² | - |
| 1778097754 | 26.11° C | 26% | 1011.5 hPa | 0 mm | - | 828 W/m² | - |
| 1778097094 | 25.56° C | 29% | 1011.5 hPa | 0 mm | - | 1081 W/m² | - |
| 1778096433 | 25° C | 29% | 1011.6 hPa | 0 mm | - | 991 W/m² | - |
| 1778095772 | 24.44° C | 30% | 1011.6 hPa | 0 mm | - | 715 W/m² | - |
| 1778095112 | 25° C | 31% | 1011.7 hPa | 0 mm | - | 867 W/m² | - |
| 1778094451 | 25° C | 29% | 1011.9 hPa | 0 mm | - | 638 W/m² | - |
| 1778093790 | 25° C | 27% | 1012 hPa | 0 mm | - | 694 W/m² | - |
| 1778093130 | 25° C | 31% | 1012.3 hPa | 0 mm | - | 557 W/m² | - |
| 1778092469 | 23.89° C | 31% | 1012.4 hPa | 0 mm | - | 635 W/m² | - |
| 1778091808 | 23.89° C | 30% | 1012.4 hPa | 0 mm | - | 598 W/m² | - |
| 1778091148 | 23.89° C | 31% | 1012.3 hPa | 0 mm | - | 578 W/m² | - |
| 1778090487 | 23.89° C | 27% | 1012.4 hPa | 0 mm | - | 471 W/m² | - |
| 1778089827 | 23.89° C | 28% | 1012.4 hPa | 0 mm | - | 457 W/m² | - |
* Rain latest hour (hover to see other rain measurements)
** Current wind speed in m/s (hover to see current wind gust speed)